Weather History for Watford City, ND

Change the Weather History Date:

Thursday, May 23, 2013

  Actual Average (KISN) Record (KISN)
Temperature  
Mean Temperature 55 °F 56 °F  
Max Temperature 68 °F 70 °F 95 °F (1980)
Min Temperature 42 °F 43 °F 27 °F (2001)
Degree Days  
Heating Degree Days 10 9  
Month to date heating degree days 285  
Since 1 July heating degree days 8810  
Cooling Degree Days 0 0  
Month to date cooling degree days 0  
Year to date cooling degree days 1  
Growing Degree Days 5 (Base 50)    
Moisture  
Dew Point 42 °F    
Average Humidity 61    
Maximum Humidity 93    
Minimum Humidity 37    
Precipitation  
Precipitation 0.00 in 0.07 in 1.52 in (1933)
Month to date precipitation 1.33  
Year to date precipitation 4.02  
Sea Level Pressure  
Sea Level Pressure 30.14 in    
Wind  
Wind Speed 14 mph (ESE)    
Max Wind Speed 29 mph    
Max Gust Speed 37 mph    
Visibility 10 miles    
Events      
T = Trace of Precipitation, MM = Missing Value Source: NWS Daily Summary

Daily Weather History Graph

Daily Weather History Graph

Search for Another Location

Airport:

Trip Planner

Search our weather history database for the weather conditions in past years. The results will help you decide how hot, cold, wet, or windy it might be!

Date:

Astronomy

May. 23, 2013 Rise Set
Actual Time 6:05 AM CDT 9:34 PM CDT
Civil Twilight 5:27 AM CDT 10:13 PM CDT
Nautical Twilight 4:36 AM CDT 11:04 PM CDT
Astronomical Twilight 3:29 AM CDT 12:12 AM CDT
Moon 8:04 PM CDT (5/23) 5:00 AM CDT (5/23)
Length of Visible Light 16h 45m
Length of Day
15h 28m
Waxing Gibbous, 97% of the Moon is Illuminated
May 23
Waxing Gibbous
May 24
Full
May 31
Last Quarter
Jun 8
New
Jun 16
First Quarter

Hourly Weather History & Observations

Time (CDT) Temp. Windchill Dew Point Humidity Pressure Visibility Wind Dir Wind Speed Gust Speed Precip Events Conditions
12:15 AM 48.2 °F - 41.0 °F 76% 30.16 in 10.0 mi East 9.2 mph - N/A   Clear
12:35 AM 50.0 °F - 41.0 °F 71% 30.17 in 10.0 mi East 9.2 mph - N/A   Scattered Clouds
12:55 AM 50.0 °F - 41.0 °F 71% 30.18 in 10.0 mi East 6.9 mph - N/A   Scattered Clouds
1:15 AM 50.0 °F - 41.0 °F 71% 30.18 in 10.0 mi East 8.1 mph - N/A   Clear
1:35 AM 50.0 °F - 41.0 °F 71% 30.19 in 10.0 mi East 8.1 mph - N/A   Clear
1:55 AM 50.0 °F - 42.8 °F 76% 30.19 in 10.0 mi East 9.2 mph - N/A   Clear
2:15 AM 48.2 °F - 42.8 °F 82% 30.20 in 10.0 mi East 8.1 mph - N/A   Clear
2:35 AM 48.2 °F - 42.8 °F 82% 30.20 in 10.0 mi East 9.2 mph - N/A   Clear
2:55 AM 50.0 °F - 44.6 °F 82% 30.20 in 10.0 mi East 10.4 mph - N/A   Clear
3:15 AM 48.2 °F - 44.6 °F 87% 30.20 in 10.0 mi East 9.2 mph - N/A   Clear
3:35 AM 48.2 °F - 44.6 °F 87% 30.20 in 10.0 mi East 8.1 mph - N/A   Clear
3:55 AM 48.2 °F - 44.6 °F 87% 30.20 in 10.0 mi ESE 10.4 mph - N/A   Clear
4:15 AM 46.4 °F 42.4 °F 42.8 °F 87% 30.20 in 10.0 mi ESE 8.1 mph - N/A   Clear
4:35 AM 46.4 °F 41.1 °F 42.8 °F 87% 30.20 in 10.0 mi ESE 11.5 mph - N/A   Clear
4:55 AM 46.4 °F 41.1 °F 41.0 °F 81% 30.21 in 10.0 mi ESE 11.5 mph - N/A   Clear
5:15 AM 46.4 °F 40.7 °F 41.0 °F 81% 30.21 in 10.0 mi ESE 12.7 mph - N/A   Clear
5:35 AM 46.4 °F 41.5 °F 41.0 °F 81% 30.21 in 10.0 mi ESE 10.4 mph - N/A   Clear
5:55 AM 42.8 °F 37.0 °F 41.0 °F 93% 30.21 in 10.0 mi ESE 10.4 mph - N/A   Clear
6:15 AM 44.6 °F 38.4 °F 41.0 °F 87% 30.21 in 10.0 mi East 12.7 mph - N/A   Clear
6:35 AM 44.6 °F 38.1 °F 41.0 °F 87% 30.20 in 10.0 mi East 13.8 mph - N/A   Clear
6:55 AM 44.6 °F 37.8 °F 41.0 °F 87% 30.20 in 10.0 mi East 15.0 mph - N/A   Clear
7:15 AM 44.6 °F 38.1 °F 41.0 °F 87% 30.20 in 10.0 mi East 13.8 mph - N/A   Clear
7:35 AM 46.4 °F 39.8 °F 41.0 °F 81% 30.20 in 10.0 mi ESE 16.1 mph - N/A   Clear
7:55 AM 48.2 °F - 41.0 °F 76% 30.20 in 10.0 mi ESE 15.0 mph - N/A   Clear
8:15 AM 48.2 °F - 42.8 °F 82% 30.20 in 10.0 mi ESE 18.4 mph - N/A   Clear
8:35 AM 48.2 °F - 42.8 °F 82% 30.21 in 10.0 mi ESE 18.4 mph - N/A   Clear
8:55 AM 50.0 °F - 42.8 °F 76% 30.21 in 10.0 mi ESE 15.0 mph - N/A   Clear
9:15 AM 51.8 °F - 44.6 °F 76% 30.20 in 10.0 mi ESE 17.3 mph 20.7 mph N/A   Clear
9:35 AM 53.6 °F - 44.6 °F 72% 30.20 in 10.0 mi ESE 15.0 mph - N/A   Clear
9:55 AM 55.4 °F - 44.6 °F 67% 30.20 in 10.0 mi ESE 15.0 mph - N/A   Clear
10:15 AM 55.4 °F - 46.4 °F 72% 30.19 in 10.0 mi ESE 17.3 mph - N/A   Clear
10:35 AM 57.2 °F - 46.4 °F 67% 30.19 in 10.0 mi SE 12.7 mph 20.7 mph N/A   Clear
10:55 AM 59.0 °F - 46.4 °F 63% 30.19 in 10.0 mi SE 17.3 mph - N/A   Clear
11:15 AM 60.8 °F - 46.4 °F 59% 30.18 in 10.0 mi ESE 17.3 mph 24.2 mph N/A   Clear
11:35 AM 62.6 °F - 46.4 °F 55% 30.17 in 10.0 mi SE 18.4 mph 24.2 mph N/A   Clear
11:55 AM 62.6 °F - 46.4 °F 55% 30.17 in 10.0 mi ESE 19.6 mph 24.2 mph N/A   Clear
12:15 PM 64.4 °F - 46.4 °F 52% 30.17 in 10.0 mi SE 16.1 mph 24.2 mph N/A   Partly Cloudy
12:35 PM 64.4 °F - 46.4 °F 52% 30.16 in 10.0 mi ESE 20.7 mph 27.6 mph N/A   Scattered Clouds
12:55 PM 66.2 °F - 42.8 °F 43% 30.16 in 10.0 mi SE 26.5 mph 31.1 mph N/A   Mostly Cloudy
1:15 PM 66.2 °F - 44.6 °F 46% 30.15 in 10.0 mi ESE 19.6 mph 32.2 mph N/A   Scattered Clouds
1:35 PM 66.2 °F - 41.0 °F 40% 30.14 in 10.0 mi SE 27.6 mph 36.8 mph N/A   Scattered Clouds
1:55 PM 66.2 °F - 41.0 °F 40% 30.14 in 10.0 mi SE 24.2 mph 35.7 mph N/A   Mostly Cloudy
2:15 PM 68.0 °F - 41.0 °F 37% 30.13 in 10.0 mi SE 24.2 mph 32.2 mph N/A   Mostly Cloudy
2:35 PM 66.2 °F - 41.0 °F 40% 30.13 in 10.0 mi SSE 27.6 mph 34.5 mph N/A   Mostly Cloudy
2:55 PM 68.0 °F - 42.8 °F 40% 30.12 in 10.0 mi SE 24.2 mph 33.4 mph N/A   Mostly Cloudy
3:15 PM 68.0 °F - 41.0 °F 37% 30.11 in 10.0 mi SE 27.6 mph 36.8 mph N/A   Scattered Clouds
3:35 PM 68.0 °F - 41.0 °F 37% 30.10 in 10.0 mi SE 24.2 mph 35.7 mph N/A   Partly Cloudy
3:55 PM 68.0 °F - 42.8 °F 40% 30.09 in 10.0 mi ESE 25.3 mph 33.4 mph N/A   Partly Cloudy
4:15 PM 68.0 °F - 42.8 °F 40% 30.09 in 10.0 mi ESE 26.5 mph 35.7 mph N/A   Partly Cloudy
4:35 PM 68.0 °F - 41.0 °F 37% 30.08 in 10.0 mi SE 23.0 mph 34.5 mph N/A   Scattered Clouds
4:55 PM 68.0 °F - 44.6 °F 43% 30.07 in 10.0 mi ESE 28.8 mph 34.5 mph N/A   Scattered Clouds
5:15 PM 68.0 °F - 41.0 °F 37% 30.07 in 10.0 mi SE 28.8 mph 36.8 mph N/A   Partly Cloudy
5:35 PM 66.2 °F - 41.0 °F 40% 30.07 in 10.0 mi SE 25.3 mph 34.5 mph N/A   Clear
5:55 PM 66.2 °F - 42.8 °F 43% 30.06 in 10.0 mi SE 19.6 mph 33.4 mph N/A   Clear
6:15 PM 66.2 °F - 41.0 °F 40% 30.06 in 10.0 mi SE 24.2 mph 35.7 mph N/A   Clear
6:35 PM 66.2 °F - 42.8 °F 43% 30.06 in 10.0 mi ESE 19.6 mph 28.8 mph N/A   Clear
6:55 PM 66.2 °F - 41.0 °F 40% 30.05 in 10.0 mi ESE 23.0 mph 26.5 mph N/A   Clear
7:15 PM 64.4 °F - 41.0 °F 42% 30.05 in 10.0 mi ESE 25.3 mph 31.1 mph N/A   Clear
7:35 PM 64.4 °F - 41.0 °F 42% 30.04 in 10.0 mi ESE 21.9 mph 29.9 mph N/A   Clear
7:55 PM 64.4 °F - 41.0 °F 42% 30.04 in 10.0 mi ESE 17.3 mph 26.5 mph N/A   Clear
8:15 PM 64.4 °F - 41.0 °F 42% 30.03 in 10.0 mi SE 19.6 mph 32.2 mph N/A   Clear
8:35 PM 64.4 °F - 41.0 °F 42% 30.03 in 10.0 mi ESE 20.7 mph 33.4 mph N/A   Clear
8:55 PM 62.6 °F - 39.2 °F 42% 30.03 in 10.0 mi SE 18.4 mph 28.8 mph N/A   Clear
9:15 PM 62.6 °F - 39.2 °F 42% 30.03 in 10.0 mi SE 17.3 mph 23.0 mph N/A   Clear
9:35 PM 59.0 °F - 39.2 °F 48% 30.03 in 10.0 mi SE 12.7 mph - N/A   Clear
9:55 PM 59.0 °F - 39.2 °F 48% 30.03 in 10.0 mi ESE 15.0 mph 21.9 mph N/A   Clear
10:15 PM 57.2 °F - 41.0 °F 55% 30.04 in 10.0 mi East 6.9 mph - N/A   Clear
10:35 PM 55.4 °F - 41.0 °F 58% 30.04 in 10.0 mi ESE 9.2 mph - N/A   Clear
11:15 PM 57.2 °F - 41.0 °F 55% 30.04 in 10.0 mi SE 15.0 mph - N/A   Clear
11:35 PM 57.2 °F - 41.0 °F 55% 30.04 in 10.0 mi SE 16.1 mph 20.7 mph N/A   Clear
11:55 PM 57.2 °F - 42.8 °F 59% 30.04 in 10.0 mi SE 19.6 mph 23.0 mph N/A   Clear